Location: Newark
(15.4608°S, 41.1635°W)
Time: 22:28:33
(UTC+00:00)

Transit 4A - Pass Details

Date: 04 March 2021
Orbit: 869 x 975 km, 66.8° (Epoch: 16 April)

Event Time Altitude Azimuth Distance (km) Brightness Sun altitude
Rises 10:55:38 0° 203° (SSW) 3,633 10.8 30.4°
Reaches altitude 10° 10:58:10 10° 204° (SSW) 2,696 10.2 31.0°
Maximum altitude 11:04:29 79° 290° (WNW) 990 8.5 32.5°
Drops below altitude 10° 11:10:50 10° 16° (NNE) 2,710 10.7 34.0°
Sets 11:13:24 0° 17° (NNE) 3,653 11.2 34.6°
